This is the latest recevied weather packets stored in our database for station/object K6POO-1. If no packets are shown the sender has not sent any weather packets the latest 10 day(s).
| Time | Temp. | Humidity | Pressure | Rain* | Wind** | Luminosity | Snow |
|---|---|---|---|---|---|---|---|
| 1778174490 | 13.33° C | 84% | 1020 hPa | 0 mm | - | 361 W/m² | - |
| 1778174184 | 13.33° C | 84% | 1020 hPa | 0 mm | - | 884 W/m² | - |
| 1778173881 | 13.33° C | 84% | 1020 hPa | 0 mm | - | 460 W/m² | - |
| 1778173573 | 13.33° C | 86% | 1020.1 hPa | 0 mm | - | 269 W/m² | - |
| 1778173270 | 12.78° C | 85% | 1020.2 hPa | 0 mm | - | 282 W/m² | - |
| 1778172965 | 12.78° C | 86% | 1019.9 hPa | 0 mm | - | 292 W/m² | - |
| 1778172662 | 12.78° C | 86% | 1020 hPa | 0 mm | - | 291 W/m² | - |
| 1778172358 | 12.78° C | 85% | 1019.9 hPa | 0 mm | - | 266 W/m² | - |
| 1778172055 | 12.78° C | 85% | 1019.9 hPa | 0 mm | - | 236 W/m² | - |
| 1778171753 | 12.78° C | 86% | 1020 hPa | 0 mm | - | 240 W/m² | - |
| 1778171451 | 12.78° C | 86% | 1019.9 hPa | 0 mm | - | 215 W/m² | - |
| 1778171150 | 12.22° C | 86% | 1019.9 hPa | 0 mm | - | 215 W/m² | - |
| 1778170848 | 12.22° C | 86% | 1020 hPa | 0 mm | - | 185 W/m² | - |
| 1778170544 | 12.22° C | 87% | 1019.9 hPa | 0 mm | - | 183 W/m² | - |
| 1778170241 | 12.22° C | 87% | 1019.8 hPa | 0 mm | - | 173 W/m² | - |
| 1778169937 | 12.22° C | 87% | 1020 hPa | 0 mm | - | 164 W/m² | - |
| 1778169633 | 12.22° C | 87% | 1019.7 hPa | 0 mm | - | 163 W/m² | - |
| 1778169329 | 12.22° C | 88% | 1019.9 hPa | 0 mm | - | 140 W/m² | - |
| 1778169026 | 12.22° C | 88% | 1019.8 hPa | 0 mm | - | 127 W/m² | - |
| 1778168723 | 12.22° C | 88% | 1019.8 hPa | 0 mm | - | 112 W/m² | - |
| 1778168420 | 12.22° C | 88% | 1019.8 hPa | 0 mm | - | 107 W/m² | - |
| 1778168117 | 12.22° C | 88% | 1019.8 hPa | 0 mm | - | 109 W/m² | - |
| 1778167813 | 12.22° C | 88% | 1019.9 hPa | 0 mm | - | 103 W/m² | - |
| 1778167509 | 12.22° C | 89% | 1019.9 hPa | 0 mm | - | 96 W/m² | - |
| 1778167206 | 11.67° C | 89% | 1019.8 hPa | 0 mm | - | 85 W/m² | - |
* Rain latest hour (hover to see other rain measurements)
** Current wind speed in m/s (hover to see current wind gust speed)